Regional Weather Roundup
Issued by NWS

Home | Current Version | Previous Version | Graphics & Text | Print | Product List | Glossary On
Versions: 1 2 3 4 5 6 7 8 9 10 11 12 13 14 15 16 17 18 19 20 21 22 23 24 25 26 27 28 29 30 31 32 33 34 35 36 37 38 39 40 41 42 43 44 45 46 47 48 49 50
000
ASUS43 KIND 301659
RWRIN

WEATHER ROUNDUP FOR INDIANA
NATIONAL WEATHER SERVICE INDIANAPOLIS IN
100 PM EDT SAT MAY 30 2015

NOTE: "FAIR" INDICATES FEW OR NO CLOUDS BELOW 12,000 FEET WITH NO
SIGNIFICANT WEATHER AND/OR OBSTRUCTIONS TO VISIBILITY.

* - STATION DOES NOT REPORT WEATHER SUCH AS PRECIPITATION OR FOG.

+ - STATION NOT QUALITY CONTROLLED BY THE NATIONAL WEATHER SERVICE.
    USE DATA WITH CAUTION...ESPECIALLY DEWPOINT AND RELATIVE
    HUMIDITY OBSERVATIONS.

INZ001>003-010>013-019-020-301800-
NORTHWEST INDIANA

CITY           SKY/WX    TMP DP  RH WIND       PRES   REMARKS
GARY /AIRPORT/ LGT RAIN  61  59  94 NW12G23   30.02R
MONTICELLO +   PTSUNNY   75  69  82 SE3       29.97F
RENSSELAER +   CLOUDY    72  70  94 E5        29.98F

$$

LMZ046-743>745-301800-
SOUTHERN LAKE MICHIGAN

STATION/POSITION TIME  TEMP    WIND        PRES    WAVE
                       AIR SEA DIR/SP/G            HT
                 (UTC) (F)     (DEG/KT/KT) (MB)    (FT)
BURNS HARBOR     1600   64     360/  3/  5 1016.6S
MICHIGAN CITY    1600   65     250/ 10/ 11   N/A
5NW MICH CITY    1600   61 57  290/  6/  6   N/A     0

$$

INZ004-005-014>016-021>024-301800-
NORTH CENTRAL INDIANA

CITY           SKY/WX    TMP DP  RH WIND       PRES   REMARKS
ELKHART        CLOUDY    72  68  88 W5        30.01F
GOSHEN         CLOUDY    75  66  73 SW8       29.99F
SOUTH BEND     LGT RAIN  71  67  87 SW6       30.01S
WARSAW +       PTSUNNY   77  66  69 CALM      30.00F

$$

INZ006>009-017-018-025>027-301800-
NORTHEAST INDIANA

CITY           SKY/WX    TMP DP  RH WIND       PRES   REMARKS
ANGOLA *+      CLOUDY    79  72  78 SW8       30.00F
FORT WAYNE     RAIN      71  69  93 S6        30.02S FOG

$$

INZ028-029-035-036-043>045-051>053-301800-
WEST CENTRAL INDIANA

CITY           SKY/WX    TMP DP  RH WIND       PRES   REMARKS
CRAWFORDSVL +  PTSUNNY   79  61  52 S10       29.97F
GREENCASTLE +  PTSUNNY   77  64  65 S13G18    29.98F
LAFAYETTE      PTSUNNY   77  68  73 W7        29.97S HAZE
TERRE HAUTE    PTSUNNY   79  69  71 S10       29.97F

$$

INZ030>032-037>040-046>048-054>057-064-065-301800-
CENTRAL INDIANA

CITY           SKY/WX    TMP DP  RH WIND       PRES   REMARKS
ANDERSON       MOSUNNY   82  63  51 SW10G16   30.01F
FRANKFORT +    RAIN      80  69  69 W3        29.99F
GREENWOOD *+   MOSUNNY   84  63  48 S15       30.00F
INDIANAPOLIS   LGT RAIN  75  68  78 SW9       29.97F
-EAGLE CREEK   PTSUNNY   83  67  58 S9        29.97F
KOKOMO *+      PTSUNNY   79  66  65 S3        29.98F
MT COMFORT *+  SUNNY     86  54  32 S12G18    29.99F
SHELBYVILLE    HVY RAIN  79  68  69 S18G33    30.00F

$$

INZ033-034-041-042-049-050-058-059-301800-
EAST CENTRAL INDIANA

CITY           SKY/WX    TMP DP  RH WIND       PRES   REMARKS
MUNCIE         MOSUNNY   84  64  50 SW13G20   29.99F

$$

INZ060-061-067>069-081>083-085>088-301800-
SOUTHWEST INDIANA

CITY           SKY/WX    TMP DP  RH WIND       PRES   REMARKS
EVANSVILLE     PTSUNNY   82  66  58 SW17G23   29.99F
HUNTINGBURG *+ PTSUNNY   82  66  57 S22G28    30.00F

$$

INZ062-063-066-070>080-084-089>092-301800-
SOUTH CENTRAL AND SOUTHEAST INDIANA

CITY           SKY/WX    TMP DP  RH WIND       PRES   REMARKS
BLOOMINGTON    MOSUNNY   72  68  87 SW7       30.00F
MADISON *+     MOSUNNY   82  61  47 S14G21    30.06F
SEYMOUR +      PTSUNNY   86  64  48 S17G23    30.01F

$$




USA.gov is the U.S. government's official web portal to all federal, state and local government web resources and services.